This demonstration page uses our WeatherBlox Daily Observations layout. Learn more.

36.17497, -115.13722

Hourly Observations for February 6, 2015

Temp ( °F °C ) Dew Point ( °F °C ) Humidity (%) Winds ( mph kmh ) Pressure ( in mb ) Visibility ( mi km ) Precip ( " mm )
12:53 am 00:53 Clear 51 10.6 39 3.9 64 64 Calm 30.14 1021 10 16.0934 0 0
1:53 am 01:53 Clear 51 10.6 38 3.3 61 61 NW 7 11 30.14 1021 10 16.0934 0 0
2:53 am 02:53 Clear 49 9.4 38 3.3 66 66 Calm 30.14 1021 10 16.0934 0 0
3:53 am 03:53 Clear 49 9.4 37 2.8 64 64 WNW 3 6 30.14 1021 10 16.0934 0 0
4:53 am 04:53 Clear 47 8.3 37 2.8 69 69 Calm 30.15 1021 10 16.0934 0 0
5:53 am 05:53 Clear 48 8.9 36 2.2 63 63 NNW 5 7 30.16 1021 10 16.0934 0 0
6:53 am 06:53 Sunny 46 7.8 36 2.2 68 68 NW 6 9 30.17 1022 10 16.0934 0 0
7:53 am 07:53 Sunny 51 10.6 38 3.3 61 61 Calm 30.18 1022 10 16.0934 0 0
8:53 am 08:53 Sunny 55 12.8 39 3.9 55 55 Calm 30.18 1022 10 16.0934 0 0
9:53 am 09:53 Sunny 60 15.6 36 2.2 41 41 SE 3 6 30.19 1022 10 16.0934 0 0
10:53 am 10:53 Sunny 63 17.2 35 1.7 35 35 SSE 8 13 30.18 1022 10 16.0934 0 0
11:53 am 11:53 Sunny 64 17.8 34 1.1 33 33 SSE 7 11 30.14 1021 10 16.0934 0 0
12:53 pm 12:53 Sunny 67 19.4 33 0.6 28 28 ESE 5 7 30.11 1020 10 16.0934 0 0
1:53 pm 13:53 Sunny 69 20.6 33 0.6 26 26 ESE 6 9 30.08 1019 10 16.0934 0 0
2:53 pm 14:53 Sunny 70 21.1 33 0.6 26 26 SSW 3 6 30.07 1018 10 16.0934 0 0
3:53 pm 15:53 Sunny 73 22.8 33 0.6 23 23 VRB 3 6 30.05 1018 10 16.0934 0 0
4:53 pm 16:53 Sunny 70 21.1 32 0 25 25 E 8 13 30.06 1018 10 16.0934 0 0
5:53 pm 17:53 Clear 65 18.3 33 0.6 31 31 ESE 7 11 30.07 1018 10 16.0934 0 0
6:53 pm 18:53 Clear 63 17.2 34 1.1 34 34 NW 6 9 30.08 1019 10 16.0934 0 0
7:53 pm 19:53 Clear 62 16.7 33 0.6 34 34 NNE 8 13 30.08 1019 10 16.0934 0 0
8:53 pm 20:53 Clear 62 16.7 32 0 32 32 Calm 30.09 1019 10 16.0934 0 0
9:53 pm 21:53 Clear 63 17.2 23 -5 22 22 SSE 7 11 30.09 1019 10 16.0934 0 0
10:53 pm 22:53 Clear 62 16.7 23 -5 22 22 SSW 9 15 30.08 1019 10 16.0934 0 0
11:53 pm 23:53 Clear 60 15.6 25 -3.9 26 26 W 6 9 30.08 1019 10 16.0934 0 0

Powered by AerisWeather